Weather History for Brooksville, FL

Change the Weather History Date:

Thursday, August 22, 2013

  Actual Average Record
Temperature  
Mean Temperature 80 °F -  
Max Temperature 93 °F 88 °F 96 °F (2014)
Min Temperature 70 °F 69 °F 66 °F (2001)
Cooling Degree Days 15    
Growing Degree Days 30 (Base 50)    
Moisture  
Dew Point 73 °F    
Average Humidity 90    
Maximum Humidity 100    
Minimum Humidity 59    
Precipitation  
Precipitation 2.34 in - - ()
Sea Level Pressure  
Sea Level Pressure 30.06 in    
Wind  
Wind Speed 8 mph (ENE)    
Max Wind Speed 26 mph    
Max Gust Speed 33 mph    
Visibility 7 miles    
Events Fog , Rain    
Averages and records for this station are not official NWS values.
T = Trace of Precipitation, MM = Missing Value Source: NWS Daily Summary

Daily Weather History Graph

Daily Weather History Graph

Search for Another Location

Airport:

Trip Planner

Search our weather history database for the weather conditions in past years. The results will help you decide how hot, cold, wet, or windy it might be!

Date:

Astronomy

Aug. 22, 2013 Rise Set
Actual Time 7:03 AM EDT 8:01 PM EDT
Civil Twilight 6:38 AM EDT 8:25 PM EDT
Nautical Twilight 6:09 AM EDT 8:54 PM EDT
Astronomical Twilight 5:40 AM EDT 9:24 PM EDT
Moon 9:01 PM EDT (8/22) 8:36 AM EDT (8/22)
Length of Visible Light 13h 47m
Length of Day
12h 58m
Waning Gibbous, 97% of the Moon is Illuminated
Aug 22
Waning Gibbous
Aug 28
Last Quarter
Sep 5
New
Sep 12
First Quarter
Sep 19
Full

Hourly Weather History & Observations

Time (EDT) Temp. Heat Index Dew Point Humidity Pressure Visibility Wind Dir Wind Speed Gust Speed Precip Events Conditions
12:53 AM 75.0 °F - 75.0 °F 100% 30.10 in 10.0 mi ENE 4.6 mph - N/A   Clear
1:53 AM 73.9 °F - 73.9 °F 100% 30.08 in 10.0 mi ENE 4.6 mph - N/A   Clear
2:53 AM 73.9 °F - 73.9 °F 100% 30.09 in 10.0 mi Calm Calm - N/A   Clear
3:53 AM 73.9 °F - 73.9 °F 100% 30.07 in 10.0 mi ENE 3.5 mph - N/A   Partly Cloudy
4:53 AM 73.9 °F - 73.9 °F 100% 30.05 in 10.0 mi East 4.6 mph - N/A   Clear
5:53 AM 73.0 °F - 73.0 °F 100% 30.06 in 10.0 mi ENE 3.5 mph - N/A   Clear
6:53 AM 73.0 °F - 73.0 °F 100% 30.06 in 10.0 mi East 4.6 mph - N/A   Clear
7:53 AM 73.0 °F - 73.0 °F 100% 30.08 in 10.0 mi ENE 4.6 mph - N/A   Partly Cloudy
8:53 AM 77.0 °F - 77.0 °F 100% 30.10 in 10.0 mi East 8.1 mph - N/A   Clear
9:53 AM 82.0 °F 90.2 °F 77.0 °F 85% 30.11 in 10.0 mi ESE 8.1 mph - N/A   Clear
10:53 AM 84.9 °F 95.3 °F 77.0 °F 77% 30.10 in 10.0 mi East 6.9 mph - N/A   Partly Cloudy
11:18 AM 84.2 °F 92.3 °F 75.2 °F 74% 30.10 in 10.0 mi East 5.8 mph - N/A   Mostly Cloudy
11:27 AM 86.0 °F 96.9 °F 77.0 °F 74% 30.10 in 10.0 mi ESE 8.1 mph - N/A   Scattered Clouds
11:53 AM 87.1 °F 96.3 °F 75.0 °F 67% 30.08 in 10.0 mi ESE 8.1 mph - N/A   Partly Cloudy
12:53 PM 89.1 °F 98.0 °F 73.9 °F 61% 30.06 in 10.0 mi East 5.8 mph - N/A   Partly Cloudy
1:53 PM 90.0 °F 99.0 °F 73.9 °F 59% 30.04 in 10.0 mi SSE 3.5 mph - N/A   Partly Cloudy
2:53 PM 90.0 °F 99.0 °F 73.9 °F 59% 30.02 in 10.0 mi ENE 6.9 mph - N/A   Mostly Cloudy
3:49 PM 82.4 °F 87.2 °F 71.6 °F 70% 30.00 in 10.0 mi WNW 21.9 mph - N/A   Mostly Cloudy
3:53 PM 81.0 °F 84.9 °F 71.1 °F 72% 29.99 in 10.0 mi WNW 26.5 mph 33.4 mph N/A   Mostly Cloudy
4:13 PM 77.0 °F - 71.6 °F 83% 30.03 in 1.8 mi WNW 20.7 mph 32.2 mph 0.12 in Rain Heavy Rain
4:17 PM 77.0 °F - 73.4 °F 89% 30.02 in 0.8 mi NW 18.4 mph 32.2 mph 0.31 in Rain Heavy Rain
4:22 PM 77.0 °F - 75.2 °F 94% 30.03 in 0.5 mi NW 8.1 mph 28.8 mph 0.58 in Fog , Rain Heavy Rain
4:32 PM 75.2 °F - 73.4 °F 94% 30.04 in 0.8 mi NNE 18.4 mph 24.2 mph 0.77 in Rain Heavy Rain
4:39 PM 75.2 °F - 73.4 °F 94% 30.05 in 1.0 mi NNE 16.1 mph 25.3 mph 0.91 in Rain Heavy Rain
4:46 PM 73.4 °F - 73.4 °F 100% 30.05 in 1.8 mi NE 15.0 mph 21.9 mph 0.94 in Rain Rain
4:50 PM 73.4 °F - 73.4 °F 100% 30.05 in 2.5 mi NE 18.4 mph 25.3 mph 0.97 in Rain Rain
4:53 PM 73.9 °F - 73.0 °F 97% 30.05 in 3.0 mi NE 16.1 mph 25.3 mph 0.99 in Rain Rain
5:00 PM 73.4 °F - 73.4 °F 100% 30.05 in 2.5 mi NE 17.3 mph 24.2 mph 0.05 in Rain Rain
5:08 PM 73.4 °F - 71.6 °F 94% 30.06 in 1.5 mi NE 16.1 mph 25.3 mph 0.16 in Rain Heavy Rain
5:22 PM 73.4 °F - 71.6 °F 94% 30.07 in 2.0 mi ENE 19.6 mph 25.3 mph 0.37 in   Mist
5:37 PM 73.4 °F - 71.6 °F 94% 30.06 in 1.8 mi ENE 17.3 mph 28.8 mph 0.57 in Rain Heavy Rain
5:44 PM 73.4 °F - 71.6 °F 94% 30.06 in 2.5 mi ENE 15.0 mph 27.6 mph 0.65 in Rain Heavy Rain
5:49 PM 73.4 °F - 71.6 °F 94% 30.06 in 1.8 mi ENE 21.9 mph - 0.81 in Rain Heavy Rain
5:53 PM 73.0 °F - 71.1 °F 93% 30.06 in 1.5 mi ENE 16.1 mph 24.2 mph 0.93 in Rain Heavy Rain
6:00 PM 71.6 °F - 69.8 °F 94% 30.05 in 2.0 mi NE 12.7 mph - 0.07 in Rain Heavy Rain
6:10 PM 71.6 °F - 69.8 °F 94% 30.06 in 4.0 mi East 4.6 mph - 0.12 in Rain Rain
6:53 PM 70.0 °F - 69.1 °F 97% 30.05 in 7.0 mi ESE 5.8 mph - 0.24 in Rain Rain
7:53 PM 72.0 °F - 71.1 °F 97% 30.01 in 10.0 mi East 10.4 mph - 0.15 in Rain Light Rain
8:53 PM 73.9 °F - 73.0 °F 97% 30.01 in 10.0 mi ESE 3.5 mph - 0.03 in   Clear
9:53 PM 73.9 °F - 73.0 °F 97% 30.02 in 10.0 mi ENE 3.5 mph - N/A   Clear
10:53 PM 73.9 °F - 73.0 °F 97% 30.04 in 10.0 mi Calm Calm - N/A   Clear
11:53 PM 73.9 °F - 73.0 °F 97% 30.04 in 10.0 mi NE 5.8 mph - N/A   Clear